SCP
0 0 0 0 0 0 0 0 0 0 0 0 0 0 0 0 0 0 0 0 0 0 0 0 0 0 0 0 0 0 0 0 0 0 0 0 0 0 0 0 0 0 0 0 0 0 0 0 0
0 0 0 0 0 0 0 0 0 0 0 0 0 0 0 0 0 0 0 0 0 0 0 0 0 0 0 0 0 0 0 0 0 0 0 0 0 0 0 0 0 0 0 0 0 0 0 0 0
0 0 0 0 0 0 0 0 0 0 0 0 0 0 0 0 0 0 0 0 0 0 0 0 1 1 0 0 0 0 0 0 0 0 0 0 0 0 0 0 0 0 0 0 0 0 0 0 0
0 0 0 0 0 0 0 0 0 0 0 0 0 0 0 0 0 0 0 0 0 0 0 0 1 1 1 0 0 0 0 0 0 0 0 0 0 0 0 0 0 0 0 0 0 0 0 0 0
0 0 0 0 0 0 0 0 0 0 0 0 0 0 0 0 0 0 0 0 0 0 0 0 1 1 1 0 0 0 0 0 0 0 0 0 0 0 0 0 0 0 0 0 0 0 0 0 0
0 0 0 0 0 0 0 0 0 0 0 0 0 0 0 0 0 0 0 0 0 0 0 0 1 1 1 0 0 0 0 0 0 0 0 0 0 0 0 0 0 0 0 0 0 0 0 0 0
0 0 0 0 0 0 0 0 0 0 0 0 0 0 0 0 0 0 0 0 0 0 0 0 0 1 0 0 0 0 0 0 0 0 0 0 0 0 0 0 0 0 0 0 0 0 0 0 0
0 0 0 0 0 0 0 0 0 0 0 0 0 0 0 0 0 0 0 0 0 0 0 0 0 0 0 0 0 0 0 0 0 0 0 0 0 0 0 0 0 0 0 0 0 0 0 0 0
0 0 0 0 0 0 0 0 0 0 0 0 0 0 0 0 0 0 0 0 0 0 0 0 0 0 0 0 0 0 0 0 0 0 0 0 0 0 0 0 0 0 0 0 0 0 0 0 0
0 0 0 0 0 0 0 0 0 0 0 0 0 0 0 0 0 0 0 0 0 0 0 0 0 0 0 0 0 0 0 0 0 0 0 0 0 0 0 0 0 0 0 0 0 0 0 0 0
0 0 0 0 0 0 0 0 0 0 0 0 0 0 0 0 0 0 0 0 0 0 0 0 0 0 0 0 0 0 0 0 0 0 0 0 0 0 0 0 0 0 0 0 0 0 0 0 0
0 0 0 0 0 0 0 0 0 0 0 0 0 0 0 0 0 0 0 0 0 0 0 0 0 0 0 0 0 0 0 0 0 0 0 0 0 0 0 0 0 0 0 0 0 0 0 0 0
0 0 0 0 0 0 0 0 0 0 0 0 0 0 0 0 0 0 0 0 0 0 0 0 0 0 0 0 0 0 0 0 0 0 0 0 0 0 0 0 0 0 0 0 0 0 0 0 0
0 0 0 0 0 0 0 0 0 0 0 0 0 0 0 0 0 0 0 0 0 0 0 0 0 0 0 0 0 0 0 0 0 0 0 0 0 0 0 0 0 0 0 0 0 0 0 0 0
0 0 0 0 0 0 0 0 0 0 0 0 0 0 0 0 0 0 0 0 0 0 0 0 0 0 0 0 0 0 0 0 0 0 0 0 0 0 0 0 0 0 0 0 0 0 0 0 0
0 0 0 0 0 0 0 0 0 0 0 0 0 0 0 0 0 0 0 0 0 0 0 0 0 0 0 0 0 0 0 0 0 0 0 0 0 0 0 0 0 0 0 0 0 0 0 0 0
0 0 0 0 0 0 0 0 0 0 0 0 0 0 0 0 0 0 0 0 0 0 0 0 0 0 0 0 0 0 0 0 0 0 0 0 0 0 0 0 0 0 0 0 0 0 0 0 0
0 0 0 0 0 0 0 0 0 0 0 0 0 0 0 0 0 0 0 0 0 0 0 0 0 0 0 0 0 0 0 0 0 0 0 0 0 0 0 0 0 0 0 0 0 0 0 0 0
0 0 0 0 0 0 0 0 0 0 0 0 0 0 0 0 0 0 0 0 0 0 0 0 0 0 0 0 0 0 0 0 0 0 0 0 0 0 0 0 0 0 0 0 0 0 0 0 0
0 0 0 0 0 0 0 0 0 0 0 0 0 0 0 0 0 0 0 0 0 0 0 0 0 0 0 0 0 0 0 0 0 0 0 0 0 0 0 0 0 0 0 0 0 0 0 0 0
0 0 0 0 0 0 0 0 0 0 0 0 0 0 0 0 0 0 0 0 0 0 0 0 0 0 0 0 0 0 0 0 0 0 0 0 0 0 0 0 0 0 0 0 0 0 0 0 0
0 0 0 0 0 0 0 0 0 0 0 0 0 0 0 0 0 0 0 0 0 0 0 0 0 0 0 0 0 0 0 0 0 0 0 0 0 0 0 0 0 0 0 0 0 0 0 0 0
0 0 0 0 0 0 0 0 0 0 0 0 0 0 0 0 0 0 0 0 -0 0 0 0 0 0 0 0 0 0 0 0 0 0 0 0 0 0 0 0 0 0 0 0 0 0 0 0 0
0 0 0 0 0 0 0 0 0 0 0 0 0 0 0 0 0 0 0 0 0 0 0 0 0 0 0 0 0 0 0 0 0 0 0 0 0 0 0 0 0 0 0 0 0 0 0 0 0
0 0 0 0 0 0 0 0 0 0 0 0 0 0 0 0 0 0 0 0 0 0 0 0 0 0 0 0 0 0 0 0 0 0 0 0 0 0 0 0 0 0 0 0 0 0 0 0 0
0 0 0 0 0 0 0 0 0 0 0 0 0 0 0 0 0 0 0 0 0 0 0 0 0 0 0 0 0 0 0 0 0 0 0 0 0 0 0 0 0 0 0 0 0 0 0 0 0
0 0 0 0 0 0 0 0 0 0 0 0 0 0 0 0 0 0 0 0 0 0 0 0 0 0 0 0 0 0 0 0 0 0 0 0 0 0 0 0 0 0 0 0 0 0 0 0 0
0 0 0 0 0 0 0 0 0 0 0 0 0 0 0 0 0 0 0 0 0 0 0 0 0 0 0 0 0 0 0 0 0 0 0 0 0 0 0 0 0 0 0 0 0 0 0 0 0
0 0 0 0 0 0 0 0 0 0 0 0 0 0 0 0 0 0 0 0 0 0 0 0 0 0 0 0 0 0 0 0 0 0 0 0 0 0 0 0 0 0 0 0 0 0 0 0 0
0 0 0 0 0 0 0 0 0 0 0 0 0 0 0 0 0 0 0 0 0 0 0 0 0 0 0 0 0 0 0 0 0 0 0 0 0 0 0 0 0 0 0 0 0 0 0 0 0
Wind_Speed
11 10 6 2 3 5 8 6 4 2 1 4 5 4 4 4 3 5 4 8 9 8 8 8 8 8 7 7 7 7 7 8 8 8 8 9 8 8 8 8 8 8 9 9 9 9 9 9 10
10 6 3 3 4 6 7 6 4 1 3 4 3 2 2 3 4 6 5 7 8 8 7 7 8 7 7 6 6 6 7 8 8 7 8 9 9 8 8 8 8 8 9 9 9 9 9 9 9
10 6 3 4 6 7 3 1 2 2 4 2 0 2 1 3 4 4 5 7 7 7 6 7 7 7 7 7 7 6 7 7 8 7 7 8 9 9 9 8 8 8 9 9 9 9 9 8 8
4 3 4 6 11 7 5 3 3 2 2 2 2 1 2 3 3 4 6 6 7 6 7 7 7 7 7 6 7 6 6 7 8 8 8 8 8 9 9 8 8 9 9 9 9 9 8 8 8
3 3 5 8 11 7 4 2 1 2 2 2 3 1 1 3 6 6 4 5 6 6 6 6 6 7 6 6 7 6 6 8 8 8 8 8 8 9 9 9 9 9 9 8 8 8 8 8 7
3 4 6 9 9 6 4 3 3 4 2 2 2 1 1 3 4 4 4 4 6 6 6 5 6 6 7 7 7 7 7 7 8 9 8 8 8 8 9 9 9 9 8 8 8 7 7 7 6
4 4 7 9 7 6 5 3 4 4 4 2 1 1 3 3 4 3 3 3 5 5 5 4 4 5 6 7 7 7 7 7 8 8 8 8 7 8 9 8 8 8 8 7 7 7 7 6 5
4 4 7 8 9 7 3 2 2 4 4 1 1 1 2 3 4 3 3 3 5 4 4 4 4 4 4 5 7 7 7 7 6 7 8 7 7 8 8 7 7 8 7 7 7 6 6 6 4
4 5 7 6 6 4 2 3 2 2 2 2 1 1 1 4 3 3 3 3 3 4 4 3 3 3 4 5 7 6 7 7 6 6 7 6 5 5 5 6 7 7 7 6 6 5 5 4 3
4 5 7 5 4 4 4 4 2 2 3 4 2 1 3 3 4 4 4 4 3 3 3 3 3 3 4 4 5 4 4 4 4 4 5 4 4 4 5 6 7 6 6 5 5 5 4 3 1
4 6 6 7 5 5 5 5 3 4 6 5 5 4 4 3 3 4 4 4 4 4 3 3 3 3 3 3 3 2 2 3 3 4 5 4 4 3 4 3 4 4 4 2 3 2 1 1 1
7 7 7 6 5 5 6 5 5 7 6 4 4 6 5 5 5 5 4 4 4 4 4 3 4 4 3 2 3 3 3 2 2 3 4 3 3 3 3 2 3 2 1 2 1 1 1 1 1
10 9 9 7 7 7 7 8 7 8 6 4 4 6 6 5 4 4 4 5 4 4 4 3 4 4 3 3 2 3 3 3 3 3 3 4 3 4 3 3 2 2 2 2 1 1 1 2 2
6 8 9 8 8 7 8 10 8 8 6 5 6 7 7 6 5 4 4 5 5 5 4 3 4 4 3 3 2 2 3 3 3 3 3 4 4 4 3 3 2 2 2 2 1 1 2 2 2
7 8 9 9 9 6 5 10 10 9 7 8 8 8 8 7 6 6 5 5 5 5 5 4 4 4 4 3 3 2 3 4 3 3 4 4 4 4 3 3 2 2 2 2 2 3 2 2 3
6 7 8 8 9 7 6 10 8 7 8 8 8 7 7 7 6 6 5 5 5 5 5 5 4 5 4 4 3 2 3 4 3 3 3 4 4 4 3 3 2 2 2 2 2 2 3 2 2
6 7 9 7 8 7 8 9 6 4 6 8 8 7 7 6 6 5 5 6 6 6 6 5 5 5 5 4 4 3 3 4 3 3 3 4 4 4 3 3 2 3 2 2 2 2 2 2 2
7 8 8 8 7 8 9 10 6 4 6 7 7 7 7 7 6 5 5 5 6 6 6 6 5 5 5 4 4 3 3 3 3 3 3 5 3 4 3 2 2 3 2 2 2 3 2 2 2
8 9 9 7 4 7 10 10 9 7 6 6 6 7 7 6 5 5 5 5 6 6 6 6 6 5 5 4 4 3 3 3 3 3 4 5 4 4 3 3 2 2 2 2 2 3 3 2 2
12 11 10 6 4 6 8 11 9 9 9 8 7 7 7 6 6 6 5 6 6 6 6 7 7 7 6 4 3 3 3 3 3 3 4 5 5 4 3 3 2 2 2 3 3 3 2 1 1
13 12 9 7 5 6 6 8 9 9 8 6 7 7 7 8 8 7 7 6 6 6 7 6 7 7 6 6 4 4 3 3 3 3 3 3 4 4 3 3 2 2 2 2 2 3 3 2 0
11 7 7 7 5 5 5 6 6 7 8 8 8 8 8 8 8 7 7 7 7 6 6 6 7 8 7 7 6 6 5 4 3 4 3 3 4 4 3 3 2 2 2 2 2 2 2 2 1
7 4 6 6 6 6 6 6 7 6 7 9 9 8 8 8 8 8 7 7 6 6 6 6 7 7 7 7 7 6 4 3 4 4 5 4 3 4 4 3 2 2 2 2 2 2 2 2 2
4 2 3 3 3 7 9 7 7 6 9 9 9 8 8 7 8 8 7 7 6 6 6 6 7 7 7 7 7 6 6 6 6 5 5 4 3 3 3 3 3 2 2 2 2 2 2 1 1
6 4 2 3 5 8 6 7 8 4 6 8 10 9 9 8 7 7 7 7 7 7 7 7 8 7 6 7 7 7 6 6 6 5 5 5 3 3 3 3 3 2 2 2 2 2 2 2 2
10 8 6 6 5 4 5 8 5 2 3 3 5 8 8 8 7 7 7 7 7 8 7 7 8 7 7 7 6 6 6 5 4 4 4 4 3 3 4 3 3 3 3 2 2 2 2 2 1
8 8 5 2 3 3 5 4 3 3 4 4 5 7 8 8 7 7 6 6 7 7 7 7 8 8 8 7 6 6 6 5 5 4 4 3 3 3 4 4 3 3 3 3 2 2 2 2 2
5 4 4 5 4 5 6 7 6 7 6 6 6 6 7 7 6 6 6 6 6 6 6 6 7 8 8 7 7 6 6 5 5 5 4 4 4 4 4 4 3 3 3 3 2 2 2 2 2
6 6 5 4 4 3 3 3 1 7 8 8 7 6 6 7 6 5 5 5 5 6 6 6 6 6 6 7 6 6 6 5 5 5 5 5 4 4 5 4 4 3 3 3 3 2 2 3 2
7 7 6 5 5 4 3 3 3 3 5 6 6 6 6 6 6 5 6 5 5 5 5 6 6 6 6 6 6 6 6 5 5 5 5 5 4 4 5 4 4 4 4 4 4 3 3 3 3
Wind_Direction
291 268 254 245 241 233 238 233 242 261 13 24 20 10 357 4 31 104 117 86 93 104 116 121 117 118 120 116 115 120 126 129 131 132 129 127 124 118 112 108 107 104 102 99 98 98 101 99 97
288 276 258 231 235 235 235 219 229 207 73 51 20 355 339 52 69 94 93 88 97 103 112 117 116 117 120 120 119 122 127 129 128 133 130 129 127 122 116 112 108 103 99 97 95 93 99 101 100
274 266 249 228 231 239 252 197 163 119 89 95 19 332 6 79 82 87 95 99 100 101 103 109 116 119 120 121 122 124 128 132 128 124 128 129 129 124 119 115 108 101 99 100 98 94 95 99 101
264 231 242 243 243 242 261 287 42 103 128 164 171 137 57 59 76 90 99 100 101 100 101 111 121 123 122 124 129 131 132 135 132 126 121 128 131 126 121 113 105 103 102 101 100 97 96 99 100
251 243 233 239 244 244 257 283 355 254 175 197 203 171 102 63 87 99 103 108 109 105 106 122 123 127 127 129 134 137 139 138 135 131 125 119 126 125 120 112 107 106 103 103 104 102 100 99 102
241 236 240 241 244 235 236 263 262 254 236 215 219 212 164 129 108 110 107 109 108 110 113 126 120 125 134 134 132 131 133 138 136 131 124 120 114 115 117 113 110 109 108 104 105 105 102 101 101
255 248 250 260 261 242 225 224 238 259 254 227 228 220 159 128 105 104 105 107 108 113 121 128 136 131 131 131 131 130 124 122 135 133 126 120 116 113 108 109 113 112 108 105 103 105 104 101 99
278 274 253 252 256 255 233 222 241 260 270 270 222 201 172 138 120 126 129 125 118 121 128 133 140 141 137 133 130 131 125 119 127 133 129 125 122 118 114 110 107 110 108 105 103 104 105 103 103
270 252 247 249 257 265 269 253 248 290 272 268 279 350 113 129 137 150 148 139 131 130 130 129 139 140 139 141 138 135 130 129 130 141 143 143 141 130 119 116 109 105 106 107 108 109 105 104 113
225 241 244 267 292 293 280 262 236 251 245 251 254 62 118 158 169 172 169 166 155 147 146 141 136 134 142 146 145 150 150 150 152 154 159 155 130 125 124 120 116 110 106 107 108 110 113 110 124
220 240 260 269 293 301 291 278 244 237 245 227 205 175 159 181 184 183 175 170 167 156 155 145 141 136 137 148 156 154 146 145 144 146 156 141 129 129 127 129 125 120 116 110 111 119 132 125 117
238 243 257 270 291 282 277 274 260 242 250 237 192 176 180 196 204 194 184 173 162 159 159 155 148 144 141 143 162 151 147 138 134 143 150 135 130 126 126 124 125 124 121 106 108 125 114 89 82
236 249 254 261 269 267 270 264 259 254 255 253 198 186 192 200 210 201 187 170 161 166 162 158 151 148 148 137 156 153 146 139 137 132 136 130 131 129 129 125 119 117 113 114 92 68 71 71 71
252 252 253 253 256 254 260 266 252 246 225 222 202 197 197 201 201 207 192 176 169 167 161 150 152 143 137 132 134 140 134 129 129 136 139 130 124 121 121 120 121 119 118 114 103 88 75 64 67
263 260 253 242 240 239 252 261 243 241 217 217 207 198 200 199 193 202 198 175 170 165 157 157 153 137 132 131 126 125 125 127 127 127 130 123 118 118 116 115 116 112 106 97 81 81 70 68 60
240 241 245 228 218 214 212 254 248 223 212 212 207 201 198 197 191 193 188 172 168 161 155 156 149 139 137 132 121 122 126 124 122 121 119 112 112 118 115 114 111 106 94 90 88 84 77 68 63
220 233 239 231 204 202 212 252 254 209 212 207 201 198 193 194 190 182 177 174 168 161 154 152 142 140 135 128 116 116 114 115 120 117 114 111 105 110 113 111 115 111 98 92 98 90 95 88 69
221 231 243 236 205 207 219 243 249 223 217 211 199 191 189 192 196 177 171 171 163 157 152 151 141 142 133 124 112 106 102 107 109 116 121 114 111 109 105 111 108 108 107 95 97 105 97 103 100
253 254 255 258 230 225 232 244 244 226 223 216 202 191 191 186 182 168 165 162 155 154 152 150 147 145 137 135 134 132 132 123 116 121 121 116 114 109 112 115 108 105 111 115 106 108 105 87 91
244 255 264 272 237 234 247 254 246 226 217 206 200 191 182 174 173 170 164 159 158 160 158 155 152 149 147 144 137 132 131 123 119 115 113 117 115 111 116 118 122 121 119 114 107 109 110 106 101
236 238 251 265 288 271 270 267 241 228 214 203 197 184 175 176 177 176 170 160 157 162 164 161 155 153 148 139 127 118 107 103 103 113 122 124 121 118 111 114 118 120 124 130 122 121 122 144 158
238 230 247 259 262 255 225 265 245 214 198 202 199 187 180 179 172 171 167 161 162 166 159 154 155 153 148 142 139 142 147 146 149 140 139 130 125 122 116 116 118 125 119 125 133 124 130 132 152
235 238 243 245 245 263 241 251 261 206 200 204 195 187 178 173 169 166 166 161 157 156 156 154 149 150 149 146 145 144 146 138 130 131 138 134 127 124 123 123 119 116 113 121 127 126 126 137 144
219 221 243 242 238 247 225 222 260 211 203 194 185 181 175 169 166 162 161 153 150 150 152 152 152 154 153 148 148 147 147 143 140 146 152 146 136 126 132 130 124 120 117 122 130 127 130 137 133
186 165 180 205 216 237 208 212 243 215 182 183 178 174 170 167 165 160 158 156 157 156 157 156 155 154 154 152 151 150 147 145 150 155 156 150 146 146 155 146 145 144 137 134 131 123 133 140 141
195 187 185 199 213 230 203 217 234 164 128 132 152 156 158 158 157 159 159 157 159 161 163 163 163 157 155 155 149 146 145 146 149 154 155 153 154 155 151 145 147 143 140 142 139 135 141 133 149
191 209 227 264 272 246 224 215 216 134 132 136 144 147 154 154 154 155 153 153 155 161 165 167 163 156 156 157 146 145 145 145 148 154 149 144 145 143 143 146 147 145 143 144 143 147 159 157 169
222 198 193 206 218 237 226 212 206 179 181 168 162 154 148 142 143 146 147 149 152 156 154 154 156 155 154 155 153 152 153 151 149 148 146 144 145 144 147 153 158 156 155 152 147 153 168 164 174
193 204 207 204 230 222 237 236 189 170 172 167 160 148 145 145 145 141 140 140 141 141 144 146 148 146 148 151 152 152 154 153 150 152 152 152 153 157 161 166 167 167 168 164 162 171 181 181 187
205 199 194 193 230 231 252 266 14 79 111 127 131 125 124 128 129 131 132 132 133 138 141 145 145 147 150 149 149 149 150 146 145 152 155 153 158 165 169 170 173 176 178 178 180 187 190 186 192